Tracking 35274 objects as of 10-Sep-2026
HD Live streaming from Space Station
objects crossing your sky now

STARLINK-5482

Track STARLINK-5482 now!
10-day predictions
STARLINK-5482 is classified as:


NORAD ID: 56358
Int'l Code: 2023-058AT
Launch date: April 27, 2023
Source: United States (US)
Launch site: AIR FORCE WESTERN TEST RANGE (AFWTR)
Your satellite tracking list
Your tracking list is empty




NASA's NSSDC Master Catalog

Two Line Element Set (TLE):
1 56358U 23058AT  26252.91670139  .00092405  00000-0  58846-2 0  9991
2 56358  97.2842 247.3516 0001670  36.4461 126.2751 15.08330996  5730
Source of the keplerian elements: AFSPC